Regional Weather Roundup
Issued by NWS

Home | Current Version | Previous Version | Text Only | Print | Product List | Glossary Off
Versions: 1 2 3 4 5 6 7 8 9 10 11 12 13 14 15 16 17 18 19 20 21 22 23 24 25 26 27 28 29 30 31 32 33 34 35 36 37 38 39 40 41 42 43 44 45 46 47 48 49 50

000
ASUS43 KDTX 011001
RWRMI
MICHIGAN HOURLY REGIONAL WEATHER ROUNDUP
NATIONAL WEATHER SERVICE DETROIT/PONTIAC MI
600 AM EDT WED JUL 01 2015

NOTE: "FAIR" INDICATES FEW OR NO CLOUDS BELOW 12,000 FEET WITH NO
SIGNIFICANT WEATHER AND/OR OBSTRUCTION TO VISIBILITY.

MIZ047>049-052>055-059>063-066>070-074>076-081>083-011100-
SOUTHEAST LOWER MICHIGAN

CITY           SKY/WX    TMP DP  RH WIND       PRES   REMARKS
ADRIAN         CLOUDY    63  60  90 NW3       29.85R
ALMA           CLOUDY    56  55  97 NW7       29.87R
ANN ARBOR      CLOUDY    63  60  90 NW7       29.83R
BAD AXE        CLOUDY    58  56  92 NW3       29.82S
CARO           HVY RAIN  59  58  97 W5        29.83R
DETROIT CITY   CLOUDY    62  59  90 CALM      29.82R
DETROIT        CLOUDY    63  60  90 CALM      29.83R FOG
FLINT          CLOUDY    63  59  87 NW7       29.83S
GROSSE ILE     CLOUDY    64  61  88 W3        29.81R
HILLSDALE      CLOUDY    60  60 100 W7        29.87R FOG
HOWELL         CLOUDY    62  61  97 CALM      29.84R FOG

CITY           SKY/WX    TMP DP  RH WIND       PRES   REMARKS
JACKSON        CLOUDY    60  58  92 W7        29.86R
LAMBERTVILLE   PTCLDY    63  60  90 CALM      29.85R FOG
LANSING        CLOUDY    59  57  93 NW8       29.86R
LAPEER         CLOUDY    58  57  96 CALM      29.83S FOG
MASON          CLOUDY    58  57  97 W8        29.86R FOG
MONROE         CLOUDY    61  61  98 W3        29.82R FOG
MT. CLEMENS    PTCLDY    60  59  96 NW2       29.80R FOG
PONTIAC        MOCLDY    61  59  93 NW6       29.82R
PORT HOPE        N/A     61  59  93 W8        29.80R
PORT HURON     CLEAR     55  55 100 CALM      29.82S FOG
TRI CITIES     CLOUDY    58  54  86 NW9       29.85R
MIDLAND        CLOUDY    56  54  92 NW7       29.84S
TROY           CLOUDY    63  61  94 NW3       29.84R
SAGINAW HB     CLOUDY    59  59 100 W8        29.84R
$$
MIZ043>046-050>051-056>058-064>065-071>073-077>080-011100-
SOUTHWEST LOWER MICHIGAN

CITY           SKY/WX    TMP DP  RH WIND       PRES   REMARKS
BATTLE CREEK   CLOUDY    59  56  89 W9        29.89R FOG
BENTON HARBOR  CLOUDY    58  53  84 VRB6      29.92R
BIG RAPIDS     CLOUDY    51  48  89 NW3       29.89R
COLDWATER      CLOUDY    56  56  98 W7        29.88S FOG
FREMONT        CLOUDY    52  50  94 N5        29.90R
HOLLAND        CLOUDY    55  51  86 N6        29.92R
GRAND RAPIDS   CLOUDY    56  54  93 NW8       29.89R
IONIA          CLOUDY    58  56  93 NW8       29.87R
KALAMAZOO      CLOUDY    57  54  89 NW7       29.90R
LUDINGTON      CLOUDY    52  49  88 N5        29.92R
MARSHALL       CLOUDY    59  58  95 W6        29.87R FOG
MOUNT PLEASANT CLOUDY    54  52  94 NW5       29.86R
MUSKEGON       CLOUDY    54  49  83 NW7       29.92R
SOUTH HAVEN    CLOUDY    56  52  86 NW8       29.91S
$$
MIZ016>042-011100-
NORTHERN LOWER MICHIGAN

CITY           SKY/WX    TMP DP  RH WIND       PRES   REMARKS
ALPENA         LGT RAIN  60  58  92 NW7       29.84R
BEAVER ISLAND  CLOUDY    50  49  97 NW6       29.89R FOG
BELLAIRE       CLOUDY    51  49  93 CALM      29.89R
CADILLAC       CLOUDY    50  48  93 NW3       29.88R
CHARLEVOIX     CLOUDY    53  52  98 NW5       29.91R FOG
FRANKFORT      CLOUDY    53  46  77 N5        29.91R
GAYLORD        CLOUDY    50  50 100 W5        29.87R FOG
GRAYLING       FOG       50  50  98 NW6       29.88R VSB 1
HARBOR SPRINGS CLOUDY    53  52  96 CALM      29.87S
HOUGHTON LAKE  CLOUDY    51  50  96 NW6       29.87R FOG
MANISTEE       CLOUDY    52  45  76 N6        29.92R
OSCODA         CLOUDY    60  59  94 NW6       29.82R
PELLSTON       CLOUDY    53  52  96 NW5       29.87R
ROGERS CITY    CLOUDY    57  56  97 W8        29.85S FOG
TRAVERSE CITY  CLOUDY    51  48  89 W6        29.88R
$$
MIZ007>008-015-011100-
EASTERN UPPER MICHIGAN

CITY           SKY/WX    TMP DP  RH WIND       PRES   REMARKS
KINROSS        CLOUDY    54  54 100 N7        29.86S
MACKINAC ISLAN CLOUDY    53  53 100 N6        29.85S
NEWBERRY       CLOUDY    46  46  99 NW6       29.89S
S. S. MARIE    CLOUDY    53  50  89 N5        29.86S
MUNISING         N/A     49  46  90 N13       29.94R
$$
MIZ004>006-011>014-085-011100-
CENTRAL UPPER MICHIGAN

CITY           SKY/WX    TMP DP  RH WIND       PRES   REMARKS
MANISTIQUE     CLOUDY    45  44  94 N9        29.89S
ESCANABA       CLOUDY    48  43  81 N6        29.93R
MENOMINEE      CLOUDY    48  43  81 N3        29.94R
SAWYER-GWINN   CLOUDY    45  42  89 N12       29.94S
$$
MIZ001>003-009>011-084-011100-
WESTERN UPPER MICHIGAN

CITY           SKY/WX    TMP DP  RH WIND       PRES   REMARKS
IRON MOUNTAIN  CLEAR     42  39  89 N3        29.94R
HOUGHTON       CLEAR     43  39  86 NW9       29.98S
COPPER HARBOR    N/A     46  41  82 VRB3      29.98S
IRONWOOD       PTCLDY    39  37  93 E3        29.97F
$$

ABBREVIATIONS USED IN REMARKS
   TC - TEMPERATURE IN CELSIUS
  WCI - WIND CHILL INDEX
   HX - HEAT INDEX
  VSB - VISIBILITY



USA.gov is the U.S. government's official web portal to all federal, state and local government web resources and services.